Location: Kumla
(59.1265°N, 15.1401°E)
Time: 23:15:52
(UTC+01:00)

Vanguard 1 - Pass Details

Date: 03 December 2023
Orbit: 653 x 3825 km, 34.3° (Epoch: 04 March)

Event Time Altitude Azimuth Distance (km) Brightness Sun altitude
Rises 23:54:47 0° 269° (W) 7,665 14.6 -52.9°
Reaches altitude 10° 00:01:37 10° 257° (WSW) 6,858 14.2 -52.8°
Enters shadow 00:04:21 14° 251° (WSW) 6,578 14.0 -52.8°
